This demonstration page uses our WeatherBlox Daily Observations layout. Learn more.

Left ArrowRight Arrow

Hourly Observations for April 23, 2022

Temp ( °F °C ) Dew Point ( °F °C ) Humidity (%) Winds ( mph kmh ) Pressure ( in mb ) Visibility ( mi km ) Precip ( " mm )
12:52 am 00:52 Clear 68 20 57 13.9 68 68 SSE 22 35 29.91 1013 10 16 0.00 0.00
1:52 am 01:52 Clear 68 20 56 13.3 65 65 S 20 31 29.88 1012 10 16 0.00 0.00
2:52 am 02:52 Clear 67 19.4 56 13.3 68 68 SSE 20 31 29.85 1011 10 16 0.00 0.00
3:52 am 03:52 Clear 67 19.4 56 13.3 68 68 SSE 18 30 29.84 1010 10 16 0.00 0.00
4:52 am 04:52 Clear 66 18.9 56 13.3 70 70 SSE 17 28 29.82 1010 10 16 0.00 0.00
5:52 am 05:52 Clear 66 18.9 56 13.3 70 70 SSE 21 33 29.81 1010 10 16 0.00 0.00
6:52 am 06:52 Sunny 66 18.9 56 13.3 70 70 SSE 20 31 29.82 1010 10 16 0.00 0.00
7:52 am 07:52 Sunny 68 20 57 13.9 68 68 S 24 39 29.83 1010 10 16 0.00 0.00
8:52 am 08:52 Sunny 69 20.6 56 13.3 63 63 S 25 41 29.83 1010 10 16 0.00 0.00
9:52 am 09:52 Sunny 70 21.1 56 13.3 61 61 S 23 37 29.86 1011 10 16 0.00 0.00
10:52 am 10:52 Sunny 70 21.1 55 12.8 59 59 S 25 41 29.86 1011 10 16 0.00 0.00
11:52 am 11:52 Sunny 75 23.9 57 13.9 54 54 S 24 39 29.86 1011 10 16 0.00 0.00
12:52 pm 12:52 Sunny 76 24.4 56 13.3 50 50 S 29 46 29.82 1010 10 16 0.00 0.00
1:52 pm 13:52 Sunny 79 26.1 56 13.3 45 45 S 26 43 29.79 1009 10 16 0.00 0.00
2:52 pm 14:52 Sunny 79 26.1 55 12.8 44 44 SSW 28 44 29.77 1008 10 16 0.00 0.00
3:52 pm 15:52 Sunny 79 26.1 55 12.8 44 44 S 25 41 29.74 1007 10 16 0.00 0.00
4:52 pm 16:52 Mostly Sunny 78 25.6 55 12.8 45 45 S 24 39 29.76 1008 10 16 0.00 0.00
5:52 pm 17:52 Mostly Sunny 76 24.4 55 12.8 48 48 SSW 16 26 29.76 1008 10 16 0.00 0.00
6:52 pm 18:52 Sunny 75 23.9 55 12.8 50 50 S 20 31 29.75 1007 10 16 0.00 0.00
7:52 pm 19:52 Cloudy with Light Rain 72 22.2 57 13.9 59 59 S 16 26 29.77 1008 10 16 0.00 0.00
8:52 pm 20:52 Mostly Cloudy 72 22.2 56 13.3 57 57 S 15 24 29.78 1009 10 16 0.00 0.00
9:52 pm 21:52 Clear 72 22.2 56 13.3 57 57 S 16 26 29.78 1008 10 16 0.00 0.00
10:52 pm 22:52 Clear 71 21.7 56 13.3 59 59 SSE 16 26 29.78 1008 10 16 0.00 0.00
11:52 pm 23:52 Clear 71 21.7 57 13.9 61 61 S 17 28 29.78 1009 10 16 0.00 0.00

Powered by AerisWeather